Date,Fine,Dust,Seasalt,latitude,longitude,RWD,RWS,TWD,TWS
2020-11-20 18:50:00,1.95677322938906,0.367755924758656,4.01004302897573,32.4283183333333,138.327638333333,89,5.4,348,9.1
2020-11-20 18:55:00,1.7114664177762,0.386665257871871,3.84823209068686,32.4097916666667,138.31782,104,7.4,348,11.8
2020-11-20 19:00:00,1.5469176813821,0.163944751201489,2.79206892410815,32.3914633333333,138.307986666667,104,7.3,348,11.6
2020-11-20 19:05:00,1.44189597525736,0.443595286890382,2.63544574177651,32.3731816666667,138.297686666667,104,7.2,349,11.5
2020-11-20 19:10:00,1.30385623824157,0.189621400683016,2.31059522108805,32.354975,138.287203333333,119,6,358,11.6
2020-11-20 19:15:00,1.18501023286452,0.219168526191631,2.5750525847409,32.3369716666667,138.276293333333,110,6.8,350,11.7
2020-11-20 19:20:00,1.1545869587047,0.158682570535572,1.43066819132434,32.318815,138.265433333333,106,6.7,346,11.2
2020-11-20 19:25:00,1.19005590210035,0.0642538233457693,1.73755987315492,32.300485,138.25499,117,5.7,353,11.1
2020-11-20 19:30:00,1.33480881603921,0.118261812292918,2.30944508951184,32.281815,138.245646666667,119,6.9,348,12.2
2020-11-20 19:35:00,1.28286874432918,0.016646766505839,2.53611157080423,32.263065,138.236855,100,6.9,343,11
2020-11-20 19:40:00,1.35648416063546,0.0968847462398091,2.05372929018028,32.244435,138.228265,110,6.1,349,10.9
2020-11-20 19:45:00,1.3058988448755,0.0758905778225361,2.0607149096345,32.2258483333333,138.219603333333,102,5.1,348,9.8
2020-11-20 19:50:00,1.42027272720707,0.140728339421282,1.96220125779403,32.2072716666667,138.21078,105,6,346,10.8
2020-11-20 19:55:00,1.56346550694187,0.0561216315869447,2.69425409560936,32.1887483333333,138.202193333333,108,5.4,352,10.5
2020-11-20 20:00:00,1.59702147347003,0.153820803521473,2.43709020662009,32.1701233333333,138.19429,135,6,0,12.4
2020-11-20 20:05:00,1.7694820522699,0.168556796796393,3.12997982508469,32.151765,138.185181666667,108,4.7,355,10
2020-11-20 20:10:00,1.9902068943106,0.199775824668529,3.92406061428914,32.1330966666667,138.175971666667,113,6.7,353,11.8
2020-11-20 20:15:00,1.92518561619128,0.110137357372587,3.4625953002473,32.1147183333333,138.166073333333,115,6.6,353,11.8
2020-11-20 20:20:00,1.98200997233577,0.0542840457286053,3.61285563591352,32.0957616666667,138.156686666667,126,6.2,358,12.2
2020-11-20 20:25:00,1.8976347989921,0.100166515077026,3.31012458316153,32.0767066666667,138.147165,120,6.2,355,11.8
2020-11-20 20:30:00,1.8109051540997,0.224678427922182,2.75404594657297,32.0576466666667,138.137593333333,133,6.3,1,12.7
2020-11-20 20:35:00,1.75391527017404,0.065856182171122,2.78308953142133,32.0386683333333,138.128236666667,121,5.9,358,11.7
2020-11-20 20:40:00,1.62945092961586,0.0531524649646986,2.70752546684461,32.02057,138.11813,109,5.7,356,10.9
2020-11-20 20:45:00,1.73655273250184,0.907193127604167,3.04122006689747,32.0023216666667,138.108003333333,109,8.1,349,12.7
2020-11-20 20:50:00,1.77566418050084,0.135156649982572,3.26213148790202,31.9840466666667,138.09798,132,6.9,1,13.1
2020-11-20 20:55:00,1.91494972427602,0.156490893196666,3.28492049807948,31.9659633333333,138.088078333333,102,7.6,348,11.7
2020-11-20 21:00:00,2.14676043393667,0.127067569617411,3.68733325349762,31.94776,138.078515,124,6.7,359,12.6
2020-11-20 21:05:00,2.25714483528784,0.169297839237991,3.74485856024995,31.9295183333333,138.069125,123,8.7,351,14.3
2020-11-20 21:10:00,2.28798038198249,0.0546242396737189,2.92568852375337,31.9108066666667,138.060976666667,119,6.3,356,11.9
2020-11-20 21:20:00,2.00730562361931,0.0895235108664087,2.70720838605704,31.8736716666667,138.042773333333,127,7,359,13
2020-11-20 21:25:00,1.90374776868596,0.0604299122944016,2.5421173017557,31.85503,138.033118333333,128,6.2,2,12.3
2020-11-20 21:30:00,1.85969527426856,0.100967198809694,2.60886614152006,31.8363416666667,138.023441666667,96,6.7,346,10.6
2020-11-20 21:35:00,2.06595553707229,0.143163926129844,2.82093558703332,31.8173533333333,138.013268333333,109,6.9,351,11.8
2020-11-20 21:40:00,1.93934562527367,0.166790441281756,2.48324181126838,31.7984016666667,138.002961666667,108,7.1,351,11.8
2020-11-20 21:45:00,1.99049308853375,0.486843513149576,2.76079059323524,31.77948,137.992441666667,103,5.6,353,10.5
2020-11-20 21:50:00,1.91904352039649,0.355755358425705,3.0440161105527,31.7603983333333,137.98173,124,7.7,358,13.4
2020-11-20 21:55:00,1.94573642823255,0.268716791509137,2.30256161587825,31.7414983333333,137.970836666667,112,5.7,355,11
2020-11-20 22:00:00,2.32789923720087,0.439378665235054,2.44148615399962,31.7226433333333,137.960038333333,117,6.1,358,11.6
2020-11-20 22:05:00,2.71758197001972,0.157644919565848,2.92095359020056,31.70402,137.949035,123,6.4,359,12.1
2020-11-20 22:10:00,3.10755591025438,0.255809310888572,3.10164000438599,31.6843316666667,137.941396666667,129,7.2,353,13.2
2020-11-20 22:15:00,3.39136328163512,0.153935323720146,3.26603856463654,31.6646383333333,137.932571666667,101,5,352,9.9
2020-11-20 22:20:00,3.6254277149269,0.35558914782033,2.79154108911733,31.6453883333333,137.923001666667,121,3.7,2,9.8
2020-11-20 22:25:00,4.00326772159698,0.28672801309341,3.5547604658749,31.626405,137.913596666667,126,5.8,358,11.9
2020-11-20 22:30:00,4.39956143360623,0.358790684369826,3.74000871487592,31.6076566666667,137.904035,111,3.9,358,9.6
2020-11-20 22:50:00,9.99397317585008,1.56803828369765,68.6545472081826,31.533935,137.866918333333,144,5.6,7,12.5
2020-11-20 22:55:00,10.1800748149522,1.8650314424152,61.1110334104729,31.515895,137.85694,139,5.7,3,12.5
2020-11-20 23:00:00,9.83930606540128,2.1146312097662,66.4768465744759,31.49752,137.848338333333,140,3.4,8,10.2
2020-11-20 23:05:00,9.72466800518964,1.63385639652399,60.2660873133322,31.47913,137.840126666667,112,5.5,354,10.9
2020-11-20 23:10:00,9.03687533392746,1.64508084838599,61.0419601511191,31.4611183333333,137.8313,111,3.6,0,9.4
2020-11-20 23:15:00,8.96827480884196,2.91401121927916,69.3583485848348,31.4429866666667,137.822673333333,129,7,0,13
2020-11-20 23:20:00,9.19766579963624,1.95751749845949,68.7089325408153,31.4248783333333,137.813246666667,129,5.6,4,11.9
2020-11-20 23:25:00,8.27620791609884,1.57265140453767,61.6921302413724,31.4067166666667,137.803388333333,141,5.1,12,12.1
2020-11-20 23:30:00,8.64487490844147,2.57356079781619,55.9084806515012,31.3885583333333,137.793703333333,129,4.8,6,11.1
2020-11-20 23:35:00,7.87485358985534,2.24122554878947,58.9151459692094,31.3702616666667,137.784426666667,97,4.9,354,9.5
2020-11-20 23:40:00,7.96835352677159,2.23060131695161,53.6415099602915,31.3518366666667,137.774976666667,124,3.7,6,10.1
2020-11-20 23:45:00,7.41988311940119,1.81745783941208,53.2556651612424,31.3333483333333,137.765415,126,5.8,3,11.9
2020-11-20 23:50:00,7.33334720893238,2.12329684248434,54.8720502842365,31.3150366666667,137.75548,144,5.6,10,12.4
2020-11-20 23:55:00,6.88247234557357,1.66506097300981,49.4620576544734,31.29679,137.745521666667,95,4.6,357,9.2
2020-11-21,7.07756079592022,1.48208745099746,55.6787779142108,31.2783166666667,137.735186666667,112,4.7,358,10.2
2020-11-21 00:05:00,6.76295336404732,1.33808279265234,52.232378538897,31.2594133333333,137.725416666667,143,3.8,6,10.8
2020-11-21 00:10:00,6.57644632067942,1.55137810634573,53.3070063337189,31.240135,137.71675,96,3.6,357,8.7
2020-11-21 00:15:00,6.15310713493628,1.29255846637691,50.7218568089524,31.2210966666667,137.707338333333,101,3,2,8.6
2020-11-21 00:20:00,6.44504744809932,1.22237530652703,63.138573288965,31.2019133333333,137.697851666667,126,3.8,5,10.2
2020-11-21 00:25:00,6.11736632423181,1.50056429295425,53.0353911149267,31.1826283333333,137.688193333333,121,3.3,7,9.6
2020-11-21 00:30:00,5.79174642347842,1.11287419820715,55.455576380779,31.16342,137.678573333333,99,1.8,10,7.9
2020-11-21 00:35:00,5.59807738423159,0.816870021158992,52.3302431249151,31.1442266666667,137.669386666667,125,2.6,10,9.2
2020-11-21 00:40:00,5.76954880521064,1.26923026765871,59.5499609469767,31.12533,137.659578333333,146,2.9,16,10
2020-11-21 00:45:00,5.0823549672651,1.29211281050217,55.6591473753374,31.10651,137.649845,157,3,16,10.4
2020-11-21 00:50:00,5.22611254175031,1.04640256431992,53.2384807977578,31.087835,137.640246666667,132,2.4,12,9.4
2020-11-21 00:55:00,5.27836632834832,1.02570908947754,59.2035642607011,31.06929,137.630746666667,129,2.8,9,9.6
2020-11-21 01:00:00,5.2202680945714,0.753556143223504,63.5349226591252,31.0508683333333,137.621326666667,143,3,13,10.1
2020-11-21 01:05:00,5.11473519213725,1.2818366490408,52.9611160931772,31.03248,137.612008333333,163,2.2,20,9.6
2020-11-21 01:10:00,5.43500299528898,1.48702987755175,60.5159322904909,31.0140233333333,137.602705,118,3.1,8,9.4
2020-11-21 01:15:00,5.53133098463121,0.89811174228725,55.9555478064631,30.9956483333333,137.593315,180,5.7,23,13.2
2020-11-21 01:20:00,5.68097433928569,0.926592218434148,68.4930492100116,30.97718,137.583903333333,183,4.7,24,12.2
2020-11-21 01:25:00,5.56099176217887,1.55089701190204,58.6007840550684,30.9589316666667,137.574276666667,132,4.2,6,10.7
2020-11-21 01:30:00,5.77980672311946,1.13243931737368,64.4111516758416,30.9406533333333,137.565145,161,5.2,15,12.5
2020-11-21 01:35:00,5.93511666799447,1.39594202566821,64.2326653349766,30.9230916666667,137.554465,181,1.9,21,9.4
2020-11-21 01:40:00,6.01664169883842,1.02757735115072,60.3728927764128,30.9048016666667,137.545091666667,145,3.7,12,10.7
2020-11-21 01:45:00,6.06827491972304,1.20215669373057,66.729745548093,30.8865916666667,137.535998333333,216,3,30,10.1
2020-11-21 01:50:00,6.082140023002,0.699660379940205,72.0259840104407,30.868275,137.527546666667,227,3.6,35,10.2
2020-11-21 01:55:00,5.55496340371181,0.891269898820556,59.2895284454832,30.8497516666667,137.519413333333,220,3.4,33,10.2
2020-11-21 02:00:00,6.24631623948383,1.18818768399081,72.8710405669864,30.8311233333333,137.510808333333,155,5.1,17,12.4
2020-11-21 02:05:00,6.44947831955818,1.10182082124607,74.7432469593797,30.8126416666667,137.501666666667,184,5.4,28,12.9
2020-11-21 02:10:00,6.13739637532791,0.802516490512962,70.5797251810965,30.79416,137.492143333333,200,4.3,27,11.6
2020-11-21 02:15:00,6.5688427803196,1.03889827623327,69.5165433941741,30.7751883333333,137.483741666667,181,2.2,24,9.6
2020-11-21 02:20:00,6.75368756410277,0.603098268300727,71.3656312572837,30.7566883333333,137.473683333333,180,2.3,23,9.8
2020-11-21 02:25:00,6.62537224781873,0.58967135221385,75.355511587063,30.738215,137.463833333333,133,2.1,15,9
2020-11-21 02:30:00,6.87235222010971,0.837929449903114,79.2738478696389,30.7199166666667,137.454115,211,0.7,25,8.1
2020-11-21 02:35:00,6.35303669595743,0.774275119809824,68.5451541096344,30.7020016666667,137.44412,193,1.4,25,8.9
2020-11-21 02:40:00,6.76695437174053,0.617331403227589,72.5518950561869,30.6841383333333,137.434468333333,157,2.2,18,9.5
2020-11-21 02:45:00,7.23207940645448,0.840163691494443,80.4629343968406,30.6660483333333,137.424965,142,3.3,14,10.3
2020-11-21 02:50:00,6.26414664507316,0.637774950950865,69.010954807909,30.6478966666667,137.41483,131,1.6,16,8.8
2020-11-21 02:55:00,7.57829590171013,0.855539090139593,87.7449228930405,30.6296266666667,137.404961666667,181,1.8,23,9.3
2020-11-21 03:00:00,6.3291049417864,0.60033654431512,70.1549480354412,30.611555,137.394848333333,226,1.1,29,8.3
2020-11-21 03:05:00,6.61190764174083,0.55566939761848,74.7746573145362,30.5933066666667,137.384943333333,150,2,17,9.2
2020-11-21 03:10:00,6.522459217869,0.732147154081416,74.1990883428386,30.575245,137.374956666667,168,1,24,8.4
2020-11-21 03:15:00,6.28447407833445,0.914091695794198,71.3896818522638,30.55648,137.366625,136,2.3,11,9.3
2020-11-21 03:20:00,6.96680775052208,0.696109754141478,79.3863143072038,30.538265,137.356853333333,157,0.7,17,8
2020-11-21 03:25:00,7.58536513370673,0.84892600275061,96.2075134137714,30.5193716666667,137.348568333333,227,1.4,25,8.5
2020-11-21 03:30:00,7.53798471016428,0.788954117561278,87.2503659789504,30.5003533333333,137.340798333333,233,0.9,23,7.9
2020-11-21 03:35:00,6.44378213147096,0.834110564090469,67.5497739327358,30.4812333333333,137.33319,220,3.2,29,10.2
2020-11-21 03:40:00,6.8094385717289,0.807275745452236,73.8006189268798,30.4624466666667,137.325046666667,219,3,35,9.9
2020-11-21 03:45:00,8.75087235778182,1.17656382375122,101.508737667224,30.4445233333333,137.314946666667,180,1,22,8.6
2020-11-21 03:50:00,8.87928516573293,0.61688293217614,105.017686042217,30.4267583333333,137.304966666667,206,2.8,29,10
2020-11-21 03:55:00,10.6576392293787,1.03038164322076,114.952820972235,30.4088833333333,137.295345,198,3,25,10.2
2020-11-21 04:00:00,9.30279264576296,0.719761389162552,98.5830449027227,30.3908833333333,137.285903333333,191,3.7,26,11
2020-11-21 04:05:00,10.3994448371478,1.36190200389114,116.341734475654,30.3728216666667,137.276253333333,193,3.6,24,10.9
2020-11-21 04:10:00,11.5298109955667,0.834725413719413,117.16559379703,30.35457,137.267635,171,2.2,20,9.6
2020-11-21 04:15:00,10.4583766827471,1.13599220625912,100.192807050881,30.33677,137.258288333333,131,1.1,12,8.3
2020-11-21 04:20:00,12.3024338046994,1.33766906733701,122.060772827822,30.3189716666667,137.249713333333,179,4.7,18,12.2
2020-11-21 04:25:00,13.7752956861362,1.09680506547781,126.489529863176,30.3012466666667,137.240901666667,143,1.4,14,8.6
2020-11-21 04:30:00,12.4374687822694,0.986167740532023,114.131693557352,30.283465,137.231961666667,163,1.2,16,8.6
2020-11-21 04:35:00,13.2702486928746,1.32030390130967,122.782543982158,30.2655816666667,137.222948333333,192,1.2,19,8.6
2020-11-21 04:40:00,14.6396457753251,1.20979240509313,123.499405744682,30.24741,137.213916666667,199,2.3,25,9.8
2020-11-21 04:45:00,13.020008698062,1.40686272666217,106.108167458076,30.22893,137.20932,238,4.3,21,10.4
2020-11-21 04:50:00,13.2546257837975,1.55776729557609,117.866877926339,30.2152616666667,137.197281666667,88,5.7,20,9.3
2020-11-21 04:55:00,14.4538032797172,1.31401416856011,120.518185205878,30.206205,137.17629,95,5.5,26,9.7
2020-11-21 05:00:00,17.8166640137883,1.36436640794003,136.678632606326,30.1970233333333,137.155146666667,82,4.6,26,8.2
2020-11-21 05:05:00,13.0433283527472,1.57511796642885,104.951185130677,30.1842383333333,137.143145,246,3.3,10,8.8
2020-11-21 05:10:00,12.5663674253239,0.876546837135797,90.4307231345398,30.1653983333333,137.145116666667,264,3.8,16,8.7
2020-11-21 05:15:00,12.0667480864172,1.30618160136365,87.232168847112,30.1492866666667,137.140401666667,89,5.8,19,8.9
2020-11-21 05:20:00,14.2975521953236,1.32465017534022,100.438348149772,30.140495,137.118845,85,3.6,31,8
2020-11-21 05:25:00,11.8270956042163,2.1597866397608,83.2353540509018,30.13118,137.096913333333,92,4.4,30,9
2020-11-21 05:30:00,13.1754476467812,1.41443292208442,83.6810170101312,30.116325,137.093521666667,284,6.8,29,8.7
2020-11-21 05:35:00,13.8363174447458,1.87394763195511,94.0186983338703,30.0985016666667,137.10055,288,6.8,31,8.3
2020-11-21 05:40:00,12.6720390981331,1.27207708489922,85.7439182694787,30.0807633333333,137.10734,290,4.1,12,7.3
2020-11-21 05:45:00,11.6931596646074,1.04443208191844,77.2004807074522,30.0629783333333,137.113723333333,279,6,22,8.8
2020-11-21 05:50:00,13.4354614210034,1.32959627287447,85.4200402503987,30.0460316666667,137.110495,209,0.2,11,7.6
2020-11-21 05:55:00,10.7952924636434,1.14482180584043,66.4996774844022,30.0281083333333,137.102611666667,253,3.1,36,8.8
2020-11-21 06:00:00,12.0883637377142,1.40773216403323,77.9006341934235,30.0102233333333,137.093998333333,281,2.2,34,7.4
2020-11-21 06:05:00,12.002123941416,1.50532307094335,70.3170017647499,29.9923283333333,137.085145,280,1.3,27,7.5
2020-11-21 06:10:00,12.4417697550423,1.05413617477399,81.2838875591385,29.97432,137.076011666667,179,1.3,16,8.8
2020-11-21 06:15:00,11.6416647333455,1.36822784736476,69.7933315874141,29.9560283333333,137.067025,227,1.9,27,9
2020-11-21 06:20:00,12.7490385303814,1.61109482675341,75.9518244007449,29.9382383333333,137.05806,272,0.8,24,7.4
2020-11-21 06:25:00,13.1714522244443,1.52455614222915,79.9098573316656,29.9203866666667,137.04893,255,2.8,36,8.6
2020-11-21 06:30:00,10.9238401929006,1.53727489645525,65.949767745851,29.9023383333333,137.039925,246,2.3,31,8.6
2020-11-21 06:35:00,11.5881679158766,1.26553723986265,73.3539144618648,29.884265,137.030838333333,228,3.3,30,10.1
2020-11-21 06:40:00,13.6580458031043,1.69388431920741,84.8330834503613,29.8662583333333,137.021863333333,244,1.9,28,8.4
2020-11-21 06:45:00,14.5111679667587,1.75888647915875,87.0379135859128,29.8481933333333,137.012758333333,259,1.4,26,7.8
2020-11-21 06:50:00,12.6742683600644,1.13702847768891,75.9267409527788,29.8300766666667,137.003585,230,3.1,29,9.7
2020-11-21 06:55:00,13.6341201176097,1.1442290139311,84.1745388541779,29.8123,136.994591666667,252,3.2,34,9.1
2020-11-21 07:00:00,12.867977306925,1.08825075044616,78.6678366305043,29.7949116666667,136.985913333333,233,3.3,33,9.9
2020-11-21 07:05:00,16.8387325428166,1.66874161578179,97.5142494898819,29.77741,136.97714,229,2.3,28,9.2
2020-11-21 07:10:00,18.0186195813896,1.41040217785621,102.742793159731,29.7598683333333,136.968258333333,213,1.4,20,8.8
2020-11-21 07:15:00,13.4693542637509,1.76473313832119,79.1367737286281,29.7423966666667,136.959465,244,3.7,36,9.6
2020-11-21 07:20:00,18.5881009411126,1.34310499775283,106.06794134613,29.7249766666667,136.950851666667,250,3.4,37,9.3
2020-11-21 07:25:00,19.2920436612631,1.40935523293233,113.176155160268,29.7076166666667,136.942068333333,210,2.9,24,10.1
2020-11-21 07:30:00,19.7028098169935,1.37488420902923,110.564373837036,29.690265,136.933303333333,257,2.1,29,8.3
2020-11-21 07:35:00,15.5569604015393,1.66396366895244,98.5638140359918,29.6729583333333,136.924586666667,224,3.9,30,10.6
2020-11-21 07:40:00,18.5681644088168,1.84946304472837,114.977288808499,29.6559883333333,136.916016666667,253,4,39,9.5
2020-11-21 07:45:00,19.6482402642329,1.92104797368904,121.080811283696,29.639085,136.907468333333,262,3.4,39,8.5
2020-11-21 07:50:00,19.0721609144125,1.53218699374271,124.786203063949,29.622675,136.899126666667,241,3.7,35,9.6
2020-11-21 07:55:00,19.1813084690217,1.57976040211707,130.576140261958,29.6064483333333,136.89096,250,3.2,33,9.1
2020-11-21 08:00:00,23.906677825617,1.58561296728876,177.903900782065,29.59001,136.882705,260,3.1,36,8.7
2020-11-21 08:05:00,15.8318380838165,1.69614928876437,136.282712292099,29.57371,136.874473333333,260,4.4,42,9.1
2020-11-21 08:10:00,18.7851363775699,1.30945977947988,151.252022192581,29.5575083333333,136.86632,269,3.6,40,8.3
2020-11-21 08:15:00,19.2790820454759,1.15146611665882,150.448232256305,29.5411866666667,136.858275,276,3.8,43,8
2020-11-21 08:20:00,13.9812281759987,1.86438411199051,101.663089760455,29.5249,136.850146666667,267,4.1,44,8.8
2020-11-21 08:25:00,20.5194219712737,1.64461411790114,152.513428006356,29.508595,136.841911666667,257,4.3,42,9.4
2020-11-21 08:30:00,17.0180143744943,1.68093085015553,119.007023456743,29.4923866666667,136.833665,280,3.4,38,7.7
2020-11-21 08:35:00,15.0985142182287,2.4215961620789,128.220057976322,29.47605,136.825581666667,285,5,51,7.8
2020-11-21 08:40:00,15.3216141835379,1.48355873294325,119.745417553625,29.4596016666667,136.817366666667,276,2.3,33,7.6
2020-11-21 08:45:00,15.7079302413124,1.67792762358141,125.720708849375,29.4431116666667,136.809315,243,3.8,35,9.9
2020-11-21 08:50:00,13.7727470174904,1.76537394837391,103.544656173405,29.426625,136.801071666667,265,2.7,35,8.1
2020-11-21 08:55:00,13.5276160065291,1.53139327020359,112.903442487282,29.4102033333333,136.792746666667,272,2,32,7.7
2020-11-21 09:00:00,12.1585755158714,1.62784336498842,97.8419453022857,29.3936216666667,136.78449,256,3,37,8.5
2020-11-21 09:05:00,16.7899620523274,1.40697758045983,139.771998283262,29.3773216666667,136.776353333333,284,2.3,33,7
2020-11-21 09:10:00,18.3056467430696,1.47344629885746,158.27790455887,29.3610616666667,136.768186666667,284,3.4,43,7
2020-11-21 09:15:00,17.9697181689772,1.56456595949449,162.823014132133,29.3445516666667,136.760025,272,4.4,48,8.5
2020-11-21 09:20:00,19.9593478349971,1.16198757693735,170.32497800966,29.3279633333333,136.751763333333,289,3.8,47,7.3
2020-11-21 09:25:00,16.8727567139433,1.87619174918314,140.496202238157,29.3113,136.74339,272,4.2,46,8.5
2020-11-21 09:30:00,20.1904073870863,1.45105093040017,152.142827185543,29.29465,136.734885,284,4,48,7.5
2020-11-21 09:35:00,16.7888564741844,2.19480132407311,134.346999151422,29.277895,136.726608333333,287,5.8,59,8
2020-11-21 09:40:00,16.3352087951006,1.45298970638446,132.306157459516,29.261155,136.718233333333,298,2.9,39,6.6
2020-11-21 09:45:00,19.1296840510783,1.42083388116151,164.107307962965,29.2440566666667,136.709715,273,6,56,9.5
2020-11-21 09:50:00,20.0078653497196,1.48275555825068,175.468082060017,29.2267566666667,136.701211666667,279,3.7,45,7.8
2020-11-21 09:55:00,18.2550565616146,2.75221789021298,170.880660704661,29.209285,136.692511666667,274,4.4,48,8.5
2020-11-21 10:00:00,23.0813990697974,1.29667062189316,217.612119395225,29.19177,136.683703333333,264,3.4,43,8.3
2020-11-21 10:05:00,15.6598762185312,1.34028293534016,161.989564179421,29.1742533333333,136.674953333333,273,5.1,55,8.8
2020-11-21 10:10:00,15.856410620002,1.24099616643808,137.269123144336,29.156525,136.666246666667,277,4.7,53,8.4
2020-11-21 10:15:00,17.6888433304823,1.06077068933036,146.672529891791,29.1387033333333,136.657428333333,283,5.6,59,8.3
2020-11-21 10:20:00,13.7801763477466,1.34633482524422,115.036761985333,29.1206816666667,136.648603333333,274,5.5,56,9
2020-11-21 10:25:00,19.7947102746785,1.64068949462686,169.532647096934,29.1026683333333,136.639705,278,3.9,49,8.1
2020-11-21 10:30:00,16.448387263,1.32294662836314,136.438352864845,29.0849433333333,136.63092,266,3.3,42,8.3
2020-11-21 10:35:00,11.9411055392893,1.48170947824127,110.6426917041,29.0673466666667,136.622221666667,270,3,43,8.1
2020-11-21 10:40:00,12.3034334857858,1.06451752938936,99.0017256638296,29.049885,136.613531666667,285,3.7,50,7.4
2020-11-21 10:45:00,11.6612394744777,1.50327588468212,101.769567852175,29.032495,136.604756666667,274,4,50,8.1
2020-11-21 10:50:00,9.47291165338634,1.22477748030221,86.0900981551721,29.0151083333333,136.596105,275,4.6,53,8.5
2020-11-21 10:55:00,11.8799036708435,1.02686257735061,121.196850433936,28.9976916666667,136.587471666667,272,3.4,47,7.9
2020-11-21 11:00:00,12.7928414577838,1.20511768185225,103.595183727896,28.9805333333333,136.578821666667,272,3.9,50,7.8
2020-11-21 11:05:00,11.17217642506,1.0338367367213,111.920296322739,28.9632383333333,136.570183333333,268,5,56,9.1
2020-11-21 11:10:00,9.6583492988511,1.09246460663426,106.823728308699,28.9458233333333,136.561646666667,263,4,48,8.9
2020-11-21 11:15:00,15.1819123132491,1.34553688833155,140.417030033327,28.9284433333333,136.553151666667,256,4.4,49,9.6
2020-11-21 11:20:00,17.4698378942355,1.11510309996745,148.411196974781,28.9110016666667,136.54462,248,4.4,49,9.9
2020-11-21 11:25:00,14.3280367187628,0.995323954071234,147.741314113966,28.8935033333333,136.535723333333,277,5,59,8.5
2020-11-21 11:30:00,12.7016298576489,1.0485510712453,131.127468819631,28.875965,136.526986666667,278,5.5,61,8.7
2020-11-21 11:35:00,15.2765795421166,1.14164504050479,171.77160205883,28.85853,136.51837,285,5.2,62,7.9
2020-11-21 11:40:00,14.9165363754133,1.59943213417854,159.616597287392,28.8411416666667,136.509675,273,3.7,49,8.5
2020-11-21 11:45:00,16.7547922167082,1.21026029020111,174.126181929998,28.8238583333333,136.501045,257,4.2,52,9.2
2020-11-21 11:50:00,17.6361174248838,1.32717095138588,215.777060719089,28.8066183333333,136.492501666667,269,3.9,51,8.5
2020-11-21 11:55:00,17.7794303442296,1.44659308811956,242.327744497645,28.7894766666667,136.48401,270,4,52,8.4
2020-11-21 12:00:00,18.9784985852812,1.56278806197101,271.979737661608,28.7721433333333,136.475635,246,5.2,53,10.7
2020-11-21 12:05:00,13.7912203943255,1.27256774117682,153.345427225521,28.7551183333333,136.467261666667,256,5.8,59,10.4
2020-11-21 12:10:00,14.8217205217935,1.15997170035007,184.919669661862,28.7382666666667,136.459006666667,249,5.1,54,10.4
2020-11-21 12:15:00,14.7197082288037,1.10462380150083,158.937948691916,28.7214533333333,136.45077,258,3.2,48,8.5
2020-11-21 12:20:00,17.370675680214,1.19869859803062,190.538018107623,28.7044066666667,136.44232,251,4.7,54,9.8